Location: Bodham
(52.9000°N, 1.1667°E)
Time: 14:31:28
(UTC+00:00)

Cosmos 2112 Rocket - Pass Details

Date: 20 October 2025
Orbit: 753 x 782 km, 74.0° (Epoch: 13 November)

Event Time Altitude Azimuth Distance (km) Brightness Sun altitude
Rises 19:49:45 0° 209° (SSW) 3,255 7.4 -27.7°
Reaches altitude 10° 19:52:08 10° 211° (SSW) 2,329 6.6 -28.1°
Enters shadow 19:56:32 60° 233° (SW) 888 4.3 -28.7°
